Погода в Сектагли

Погода в Сектагли : погода сейчас, прогноз погоды и архив. Всё, что Вы хотите узнать о погоде в Сектагли!

Поиск расширенной информации на нашем сайте:

Другие новости

Новости СМИ2

Главная страница сайта

Новости сайта

03.07.2017

Напоминаем, что на нашем специализированном сайте Метеоцентр.Азия вы можете получить высокодетализированные автоматические прогнозы погоды по пунктам России, СНГ и мира в авиационном формате (включающие направление и скорость ветра, видимость, явления погоды, количество и форму облачности, нижнюю и верхнюю границу облачности).


Погода в Сектагли - сегодня

Время (UTC), дата Ветер
(°,м/с) 
Видим.   Явления Облачность Т
(°С)
Тd
(°С)
f(%) Тe
(°С)
Pmin
(гПа)
dP
(гПа)
Po
(мм)
O2
(г/м3)
Тmin Tmax R s Состояние
почвы
12 09.12.17 тихо ()   20000 м    ясно 
-29.1 -30.3 89 -29  1021.2  0.9  737  334           
15 09.12.17 тихо ()   20000 м    ясно 
-31.3 -32.4 90 -31  1021.9  0.4  738  338           
18 09.12.17 тихо ()   20000 м    ясно 
-30.7 -31.8 90 -31  1022.3  0.4  738  337           
21 09.12.17 тихо ()   20000 м    ясно 
-32.1 -33.1 91 -32  1022.3  -0.2  738  339  -32.5      14  равномерный
сухой снег
100% 
00 10.12.17 тихо ()   20000 м    3/0 верхняя 
[Ci fib]
-31.1 -32.8 85 -31  1022.4  0.3  738  337  -32.7         
03 10.12.17 110 (В) 20000 м    4/0 верхняя 
[Cc]
-21.2 -25.2 70 -22  1019.9  -1  737  324           
06 10.12.17 110 (В) 20000 м    9/0 верхняя 
[Ci]
-20 -24.1 70 -20  1019.3  -0.4  737  322           
09 10.12.17 тихо ()   20000 м    10/0 верхняя 
[Cs]
-22.8 -25.3 80 -23  1020.3  0.5  737  326    -19.4       
12 10.12.17 тихо ()   20000 м    10/0 верхняя 
[Cs]
-24.2 -26 85 -24  1021.2  0.8  738  328           
15 10.12.17 200 (Ю) 20000 м    10/0 верхняя 
[Cs]
-24 -25.4 88 -24  1021.2  738  328           
18 10.12.17 тихо ()   10 км  слаб. снег  10/0 верхняя 
[Cs]
-22.5 -23.7 90 -23  1020.3  -0.6  737  325           
21 10.12.17 тихо ()   10 км  слаб. снег  10/0 верхняя 
[Cs]
-21.7 -23.5 85 -22  1019.3  -0.9  737  324  -24.4    0.0  14  равномерный
сухой снег
100% 
00 11.12.17 тихо ()   20000 м  {снег}  10/0 верхняя 
[Cs]
-25.5 -26.7 90 -26  1019.5  -0.3  737  329  -25.7         
03 11.12.17 160 (Ю) 20000 м    10/0 верхняя 
[Ci fib]
-19.5 -22.1 80 -20  1017.6  -1  736  321           
06 11.12.17 160 (Ю) 20000 м    10/0 верхняя 
[Cs]
-18 -22.1 70 -18  1016.4  -1  735  319           
09 11.12.17 тихо ()   20000 м    10/0 средняя 
[Ac und]
-19 -20.2 90 -19  1016.6  735  320    -17.5  0.0     
12 11.12.17 тихо ()   20000 м    10/0 средняя 
[Ac und]
-18.6 -19.8 90 -19  1016.6  735  319           
15 11.12.17 тихо ()   20000 м    10/0 средняя 
[Ac und]
-18.9 -20.1 90 -19  1015.3  -1.1  734  319           
18 11.12.17 тихо ()   20000 м    10/0 средняя 
[Ac und]
-19.2 -19.8 95 -19  1014.4  -0.9  734  319           
21 11.12.17 тихо ()   20000 м    10/0 верхняя 
[Cs]
-19.7 -21.6 85 -20  1016.2  -0.5  735  321  -19.9      14  равномерный
сухой снег
100% 
00 12.12.17 тихо ()   20000 м  слаб. снег  10/0 средняя 
[As op]
-19.9 -21.8 85 -20  1016.5  0.3  735  321  -20.3         
03 12.12.17 200 (Ю) 20000 м  {снег}  10/0 средняя 
[As op]
-18.4 -21 80 -19  1016.4  0.2  735  319           
06 12.12.17 200 (Ю) 20000 м    10/0 верхняя 
[Cs]
-17.2 -20.6 75 -17  1017.4  1.1  736  318           
09 12.12.17 200 (Ю) 20000 м    8/0 верхняя 
[Ci]
-19.2 -21.8 80 -19  1019.5  1.7  737  321    -16.8  0.0     
12 12.12.17 270 (З) 20000 м    ясно 
-21.3 -23.2 85 -22  1020.8  738  324           
Время (UTC), дата Ветер
(°,м/с) 
Видим.   Явления Облачность Т
(°С)
Тd
(°С)
f(%) Тe
(°С)
Pmin
(гПа)
dP
(гПа)
Po
(мм)
O2
(г/м3)
Тmin Tmax R s Состояние
почвы

Для получения пояснительной информации подведите курсор к названию столбца.

ПОГОДА в Сектагли - архив

Всё, что Вы хотите узнать о погоде в Сектагли - удобно и подробно!

Выберите нужную дату (начиная с 1 января 2015* года) и нажмите кнопку "Найти".
Будут отображены архивные сводки погоды по пункту Сектагли, начиная с указанной даты.


Отображать данные в формате CSV (для использования в таблицах Excel)


Внимание! Наш архив погоды предназначен исключительно для личного некоммерческого использования в познавательных целях. Если Вам необходимы официальные справки о состоянии погоды (для производственных, юридических, коммерческих и т.п. целей), обращайтесь в органы Росгидромета.

*Примечание: данная дата относится к архиву по метеостанциям СССР (Россия, СНГ, Балтия).
Архив по метеостанциям Зарубежной Европы и Азии (кроме Китая) хранится 10 дней, по другим регионам земного шара (Китай, Африка, Америка, Австралия, Океания) - 1 день.

Сектагли - район местоположения метеостанции


Название, широта, долгота, высота метеостанции:
Сектагли 50.4°ш. 131°д. 230 м над ур. моря [Российская Федерация]

Дополнительная информация

В oтличие oт бoльшинства пoгoдных сайтoв мы публикуем пoдрoбную метеoинфoрмацию в детальнoм прoфессиoнальнoм фoрмате.

Характеристики температуры и влажнoсти вoздуха измеряются на высoте 2 м в тени вдали oт зданий и деревьев.
Скoрoсть ветра измеряется на высoте 10 м (на урoвне рoста челoвека скoрoсть ветра ниже в 1.5-2 раза). Если метеoстанция нахoдится в гoрoде или в лесу, тo скoрoсть ветра занижена на 2-4 м/с пo сравнению с oткрытым местoм. Скoрoсть ветра над акватoриями крупных рек и oзёр, а также на вершинах хoлмoв на 2-5 м/с выше, чем в oбычных услoвиях.
Атмoсфернoе давление в разных тoчках местнoсти мoжет значительнo oтличаться oт давления на метеoстанции, в зависимoсти oт услoвий рельефа (при пoдъёме на 10 м давление пoнижается примернo на 1 мм рт.ст.).